[Iaude] MPEC C175: 2024 CQ5 [a=2.16,e=0.85,i=2.2,H=22.5]
    mpec at cfa.harvard.edu 
    mpec at cfa.harvard.edu
       
    Wed Feb 14 19:37:10 EST 2024
    
    
  
M.P.E.C. 2024-C175                            Issued 2024 February 15, 00:35 UT
     The Minor Planet Electronic Circulars contain information on unusual
         minor planets, routine data on comets and natural satellites,
         and occasional editorial announcements.  They are published
    on behalf of Division F of the International Astronomical Union by the
          Minor Planet Center, Smithsonian Astrophysical Observatory,
                          Cambridge, MA 02138, U.S.A.
			  
             Prepared using the Tamkin Foundation Computer Network
                              MPC at CFA.HARVARD.EDU
            URL https://www.minorplanetcenter.net/    ISSN 1523-6714
                                    2024 CQ5                                    
Observations:
     K24C05Q  C2024 02 06.43114509 32 23.541-04 43 32.93         19.09GVEC175F52
     K24C05Q  C2024 02 06.44163809 32 16.740-04 41 51.19         19.06GVEC175F52
     K24C05Q  C2024 02 06.45211709 32 09.962-04 40 09.89         19.07GVEC175F52
     K24C05Q  C2024 02 06.46259409 32 03.199-04 38 28.68         18.89GVEC175F52
     K24C05Q* C2024 02 14.33880208 48 52.011+06 53 09.06         20.82wXEC175F51
     K24C05Q  C2024 02 14.35196308 48 49.651+06 53 45.57         20.90wXEC175F51
     K24C05Q  C2024 02 14.37840508 48 44.894+06 54 59.25         21.07wXEC175F51
     K24C05Q  C2024 02 14.51989408 48 19.800+07 01 27.18         20.85GVEC175F51
     K24C05Q  C2024 02 14.52143908 48 19.534+07 01 31.32         20.56GVEC175F51
     K24C05Q  C2024 02 14.52208708 48 19.420+07 01 33.16         20.59GVEC175F51
     K24C05Q KC2024 02 14.81795008 47 34.58 +07 14 32.6          20.2 GVEC175L01
     K24C05Q KC2024 02 14.82047608 47 34.19 +07 14 39.4          20.6 GVEC175L01
     K24C05Q KC2024 02 14.82300508 47 33.81 +07 14 45.8          20.6 GVEC175L01
     K24C05Q KC2024 02 14.82558008 47 33.38 +07 14 52.0          20.4 GVEC175L01
     K24C05Q KC2024 02 14.89661408 47 21.72 +07 17 58.8          20.5 GVEC175104
     K24C05Q KC2024 02 14.91294108 47 19.04 +07 18 42.2          20.8 GVEC175104
     K24C05Q KC2024 02 14.91972208 47 17.92 +07 18 59.2                VEC175104
Observer details:
104 San Marcello Pistoiese.  Observers P. Bacci, M. Maestripieri.  Measurers
    P. Bacci, L. Tesi, G. Fagioli.  0.60-m F4 Reflector + CCD.
F51 Pan-STARRS 1, Haleakala.  Observers J. Herman, T. Lowe, P. Minguez, A.
    Schultz, I. Smith.  Measurers K. Chambers, T. de Boer, J. Fairlamb, H.
    Gao, M. Huber, C.-C. Lin, E. Magnier, Y. Ramanjooloo, R. Wainscoat, R.
    Weryk.  1.8-m Ritchey-Chretien + CCD.
F52 Pan-STARRS 2, Haleakala.  Observers J. Herman, T. Lowe, P. Minguez, A.
    Schultz, I. Smith.  Measurers K. Chambers, T. de Boer, J. Fairlamb, H.
    Gao, M. Huber, C.-C. Lin, E. Magnier, Y. Ramanjooloo, R. Wainscoat, R.
    Weryk.  1.8-m Ritchey-Chretien + CCD.
L01 Visnjan Observatory, Tican.  Observer K. Korlevic.  1.0-m f/2.9 reflector
    + CCD.
Orbital elements:
2024 CQ5                                                 Earth MOID = 0.0178 AU
Epoch 2024 Mar. 31.0 TT = JDT 2460400.5                 Bell                    
M  31.89207              (2000.0)            P               Q                  
n   0.31078177     Peri.  146.37650     +0.96390300     -0.26473365             
a   2.1585678      Node   229.00110     +0.23524204     +0.89674841             
e   0.8486860      Incl.    2.15726     +0.12470844     +0.35462428             
P   3.17           H   22.57          G   0.15           U   9                  
Residuals in seconds of arc
240206 F52  0.0   0.0     240214 F51  0.1-  0.1-    240214 L01  0.4+  0.1+
240206 F52  0.0   0.0     240214 F51  0.0   0.1-    240214 L01  0.3+  0.5-
240206 F52  0.0   0.0     240214 F51  0.0   0.1-    240214 104  0.2-  0.5-
240206 F52  0.0   0.0     240214 F51  0.0   0.0     240214 104  0.0   0.4+
240214 F51  0.2-  0.1+    240214 L01  0.5-  0.2+    240214 104  0.0   0.2-
240214 F51  0.1-  0.1-    240214 L01  0.1-  0.4+
Ephemeris:
2024 CQ5                 a,e,i = 2.16, 0.85, 2                   q = 0.3266
Date    TT    R. A. (2000) Decl.     Delta      r    Elong.  Phase     V
2024 01 16    19 07 14.4 -28 43 24   0.2449  0.7457    11.9   164.2    31.6
...
2024 01 31    12 20 59.6 -37 06 08   0.07191 1.0075   106.2    69.9    19.3
...
2024 02 08    09 18 27.0 -01 04 07   0.1555  1.1364   163.6    14.2    19.6
...
2024 02 14    08 49 49.3 +06 37 11   0.2484  1.2285   164.4    12.5    20.7
2024 02 15    08 47 05.5 +07 22 45   0.2647  1.2435   163.3    13.2    20.9
2024 02 16    08 44 42.4 +08 03 08   0.2812  1.2583   162.2    13.9    21.1
...
2024 02 22    08 35 25.4 +10 52 15   0.3832  1.3457   154.8    18.2    22.1
...
2024 03 01    08 30 43.5 +12 52 29   0.5271  1.4572   145.8    22.5    23.1
...
2024 03 16    08 32 44.8 +14 28 03   0.8181  1.6525   131.2    26.9    24.4
M. P. C. Staff               (C) Copyright 2024 MPC           M.P.E.C. 2024-C175
    
    
More information about the Iaude
mailing list